Regional Weather Roundup
Issued by NWS Goodland, KS

Home | Current Version | Previous Version | Text Only | Print | Product List | Glossary On
Versions: 1 2 3 4 5 6 7 8 9 10 11 12 13 14 15 16 17 18 19 20 21 22 23 24 25 26 27 28 29 30 31 32 33 34 35 36 37 38 39 40 41 42 43 44 45 46 47 48 49 50
000
ASUS43 KGLD 302059
RWRGLD

GOODLAND FORECAST AREA HOURLY WEATHER ROUNDUP
NATIONAL WEATHER SERVICE GOODLAND KS
300 PM MDT TUE JUN 30 2015

...OFFICIAL OBSERVATIONS...

CITY           SKY/WX    TMP DP  RH WIND       PRES   REMARKS
GOODLAND KS    SUNNY     94  48  20 SW10      29.98F
HILL CITY KS   SUNNY    102  46  15 W10       29.87F
IMPERIAL NEB   SUNNY     99  50  19 SW10      29.91F
MCCOOK NEB     SUNNY     99  50  19 W7        29.88F
AKRON CO       SUNNY     92  46  20 W8        30.03F
BURLINGTON CO  SUNNY     93  47  20 SW12G18   30.02F
LIMON CO       SUNNY     86  52  30 VRB6      30.11F
$$

...UNOFFICIAL OBSERVATIONS...

CITY           SKY/WX    TMP DP  RH WIND       PRES   REMARKS
COLBY KS       SUNNY     97  54  23 CALM      29.96F
GOVE KS          N/A     99  32   9 MISG        N/A
NORTON KS      SUNNY     99  36  11 SE3       29.87F
SHARON SPRINGS   N/A     96  48  19 S13G20      N/A
KIT CARSON CO    N/A     92  51  24 MISG        N/A
$$



USA.gov is the U.S. government's official web portal to all federal, state and local government web resources and services.